{"data":{"norad_id":67010,"epoch":"2026-09-20T13:42:53.624736Z","epoch_age_seconds":75078,"freshness":"FRESH","line1":"1 67010U 25293H   26263.57145399  .00007860  00000+0  66522-3 0  9991","line2":"2 67010  70.0020 322.9142 0004519 271.0638  89.0003 14.98358108 44087","mean_motion":14.98358108,"eccentricity":0.0004519,"inclination_deg":70.002,"raan_deg":322.9142,"arg_perigee_deg":271.0638,"mean_anomaly_deg":89.0003,"bstar":0.00066522,"rev_number":4408,"period_min":96.105196235238,"perigee_km":568.82821774375,"apogee_km":575.10972352,"semimajor_km":6950.1059706319,"source":"CELESTRAK","updated_at":"2026-09-21T09:00:36.069669Z"}}